Theta_e
313 312 312 312 312 313 314 314 316 317 315 316 313 311 310 307 306 306 306 308 309 310 311 312 314 315 315 315 315 315 314 313 312 311 311 309 309 311 311 309 307 309 310 311
310 312 312 312 312 311 312 315 316 315 315 314 311 310 308 306 305 305 305 307 309 310 310 310 311 312 312 312 311 311 312 312 311 310 309 310 311 311 310 309 308 310 311 311
310 311 311 312 313 313 312 316 315 316 314 312 311 311 310 306 304 305 305 307 307 308 308 309 310 310 310 311 310 310 310 309 309 309 309 310 310 311 310 309 308 310 312 313
313 311 311 312 315 313 314 312 315 313 310 310 313 314 308 307 305 303 303 305 305 306 307 308 308 309 308 308 308 308 308 308 308 308 309 309 310 310 310 310 309 310 310 312
311 310 311 312 315 312 314 312 313 313 312 312 313 313 309 306 306 303 301 301 302 304 305 306 307 307 307 307 307 307 307 307 307 307 307 308 310 309 311 311 312 311 311 312
310 310 311 311 311 312 311 315 315 314 313 314 311 312 311 308 306 302 300 299 300 301 303 304 304 305 305 307 306 306 306 306 306 306 307 309 310 310 310 310 311 310 310 311
310 310 309 310 311 312 314 315 318 318 316 317 311 315 308 304 303 301 299 297 297 298 300 301 303 303 303 305 305 305 305 305 305 305 305 307 308 308 309 308 308 309 309 309
310 311 310 310 310 311 313 313 316 313 316 314 311 317 308 302 300 299 297 296 296 296 296 297 298 299 300 302 303 303 304 304 304 304 304 304 305 306 307 307 308 307 307 308
310 310 308 309 310 310 312 314 312 311 307 314 312 305 303 300 299 297 296 295 295 294 295 295 296 297 298 299 300 301 301 302 303 303 303 303 303 303 304 305 305 306 306 307
308 309 307 309 309 310 311 311 314 311 311 314 311 311 310 302 299 297 295 294 294 294 294 294 295 295 296 296 297 298 299 300 300 300 301 301 301 301 301 301 301 302 304 305
311 308 308 309 310 311 310 312 311 312 311 314 312 310 304 303 299 296 295 294 294 293 293 293 294 295 296 296 297 298 298 298 299 299 299 299 299 299 299 299 299 299 300 301
313 308 308 308 307 307 309 311 311 314 312 307 309 307 300 300 298 296 294 294 293 293 293 294 294 295 296 296 297 297 297 298 297 297 298 298 298 298 299 299 298 298 299 298
312 307 305 305 303 307 308 308 309 307 308 309 311 307 299 297 296 295 294 294 293 293 293 293 293 294 294 294 293 293 293 292 291 291 291 292 291 291 291 291 291 292 293 295
312 313 308 306 306 307 308 309 308 309 308 307 307 302 299 297 296 295 294 294 293 293 292 291 291 291 289 289 288 288 288 287 287 288 288 288 288 288 288 288 288 288 288 288
309 311 309 310 310 309 309 308 307 308 308 308 306 305 300 298 296 295 294 293 292 291 290 289 288 287 287 286 286 286 286 286 286 287 287 287 287 287 287 287 287 287 287 287
307 311 308 309 311 308 309 309 309 308 307 305 304 306 300 298 296 294 294 292 291 290 289 287 286 286 286 286 286 285 285 285 286 286 286 286 286 286 286 286 286 286 286 287
307 309 311 311 309 309 311 307 308 307 304 305 306 305 298 297 296 295 293 293 291 290 289 287 286 285 285 285 285 285 285 285 285 285 285 285 285 285 285 285 285 285 285 285
306 306 303 307 308 312 304 299 301 305 299 300 299 298 298 297 296 295 295 294 292 290 288 286 285 285 285 285 285 284 285 285 285 285 285 285 285 285 284 285 285 285 285 285
301 305 303 308 308 302 302 299 302 307 306 299 297 295 294 294 295 293 294 295 293 290 288 286 285 285 284 284 284 284 284 284 284 284 284 284 284 284 283 283 284 284 284 284
299 298 302 296 303 306 303 297 299 299 304 298 296 295 293 294 296 291 293 292 289 288 287 286 285 284 284 284 284 284 284 284 284 283 282 282 282 282 282 282 282 282 282 282
299 297 299 291 294 296 297 296 298 303 305 298 296 294 294 296 296 297 293 290 289 288 286 286 285 284 284 284 284 283 283 283 283 282 282 282 282 282 282 282 282 282 281 281
297 297 297 289 293 301 296 296 300 297 297 298 296 295 294 296 296 294 292 289 287 287 286 285 284 284 283 283 283 283 283 283 282 282 281 281 281 281 281 281 281 281 280 280
294 293 296 297 297 291 296 296 298 297 298 298 298 297 297 296 294 292 289 288 287 287 286 285 284 284 283 283 283 283 283 282 281 281 281 281 281 281 280 280 280 280 279 279
285 286 289 292 288 290 295 296 297 297 298 298 299 298 296 295 293 291 288 287 286 286 285 285 284 284 284 284 283 283 282 281 281 280 280 281 280 280 280 279 279 278 278 277
288 288 287 288 289 291 294 295 297 296 296 297 297 296 296 295 292 289 288 287 286 286 285 285 284 284 284 283 283 282 281 281 280 280 280 280 280 279 279 278 278 277 276 275
287 289 291 292 293 295 296 296 296 295 295 296 296 295 295 294 290 288 287 286 286 285 285 285 284 283 283 282 281 281 280 280 280 280 280 279 279 279 278 278 277 276 275 274
Wind_Speed
6 4 6 10 6 3 1 5 4 3 3 3 5 6 7 11 21 20 22 22 21 21 19 17 17 16 15 13 9 5 3 2 2 1 1 4 6 8 9 10 8 6 6 7
5 6 6 4 4 5 6 5 3 3 1 5 5 8 9 14 11 17 18 21 20 18 17 18 17 15 12 10 7 5 4 4 2 1 2 3 5 7 8 9 8 5 6 7
9 5 11 7 5 5 5 3 4 6 3 6 8 2 3 6 13 19 19 18 18 17 16 17 16 14 11 11 8 7 6 5 4 3 3 3 4 6 6 7 7 5 5 8
4 3 12 6 2 4 5 3 3 5 3 4 3 4 3 5 8 11 13 14 13 14 13 15 15 15 13 12 9 7 7 6 5 4 3 4 5 6 9 10 9 7 6 8
6 6 7 10 15 7 2 5 3 1 2 2 2 2 3 7 3 3 8 9 10 11 12 14 14 13 10 9 10 8 6 5 5 4 5 7 9 6 7 7 8 7 7 7
1 1 5 6 3 4 7 5 7 4 3 1 6 5 4 5 4 4 6 9 8 7 8 9 8 7 8 7 7 6 5 6 6 5 7 9 10 10 10 7 8 8 7 7
1 2 1 3 6 3 8 8 1 1 0 5 1 3 1 3 5 9 9 9 9 8 6 6 6 7 7 6 6 6 5 5 7 6 7 8 8 7 8 9 7 5 5 5
6 2 7 4 5 8 8 15 5 6 4 4 0 5 0 5 12 14 12 11 10 9 9 9 9 8 8 7 6 5 4 5 5 5 6 7 7 8 8 7 8 7 7 8
5 3 0 1 1 4 5 5 3 5 2 2 3 2 1 7 8 11 11 11 10 9 9 9 9 10 10 8 8 7 6 6 6 6 6 7 7 7 6 6 7 7 9 8
6 5 1 1 1 1 4 4 2 2 4 4 3 3 3 12 10 8 9 11 10 8 9 9 10 11 12 11 12 11 11 12 12 10 10 10 10 10 9 8 8 7 7 8
4 3 2 3 5 7 3 3 3 2 4 4 4 4 2 12 13 11 13 13 11 10 9 10 11 12 13 13 14 15 15 16 17 17 16 15 15 15 14 14 14 14 12 10
2 5 4 4 2 1 2 5 5 4 4 2 2 2 3 10 18 19 16 15 13 11 10 9 10 11 12 13 14 15 16 17 18 17 17 17 17 17 17 18 18 17 17 16
6 0 3 5 5 2 4 4 4 4 2 6 4 3 4 14 17 18 21 19 16 12 10 9 9 10 12 13 14 15 16 18 17 17 17 17 18 18 19 19 19 18 18 17
5 2 4 6 4 3 5 5 5 4 3 4 4 6 8 11 13 19 21 19 16 13 11 10 10 12 13 14 15 16 17 16 16 16 16 17 18 19 19 18 18 18 19 18
3 4 3 3 3 2 2 4 7 6 4 5 6 8 15 18 17 23 25 22 18 14 12 11 12 13 14 14 14 14 14 14 15 15 16 17 17 17 17 17 18 18 19 19
2 4 2 2 2 4 2 2 2 5 4 5 6 4 4 21 23 23 27 25 20 16 14 12 13 13 13 13 12 11 12 13 14 15 16 17 17 17 17 17 18 18 19 19
3 4 3 5 3 3 5 7 7 3 2 7 6 5 19 16 23 28 27 26 22 18 16 15 15 14 13 11 10 10 11 13 15 17 18 19 19 19 20 20 20 21 22 22
6 5 2 3 3 4 2 1 1 3 3 3 3 11 19 21 21 25 27 26 22 20 19 17 15 14 12 9 8 8 9 12 15 16 18 18 19 20 21 21 22 23 24 26
3 4 3 5 3 5 2 5 6 7 6 7 10 10 19 27 23 16 22 20 20 19 18 17 15 12 10 7 5 6 8 11 14 15 17 17 17 18 19 20 21 22 23 24
4 5 3 2 5 8 2 3 5 3 5 18 18 21 27 27 8 4 26 22 21 19 18 17 15 12 8 5 3 4 7 10 13 16 17 18 18 19 20 21 23 23 24 25
3 3 4 2 2 6 3 8 6 5 5 21 28 31 30 10 6 19 29 24 20 20 18 16 13 10 7 3 0 3 7 11 15 17 17 18 19 20 22 23 25 27 28 29
6 6 4 3 2 7 14 6 8 3 11 24 25 31 27 14 12 31 30 26 23 21 18 15 12 10 7 4 3 5 9 12 14 15 16 17 18 20 21 23 24 26 29 31
2 5 5 7 5 2 23 1 11 10 21 25 27 30 30 22 27 33 29 25 22 19 17 14 11 9 7 4 5 7 9 12 13 14 14 15 17 19 22 24 26 28 30 32
3 4 2 3 3 3 20 6 11 12 20 24 24 29 30 28 32 29 26 24 21 19 16 13 11 9 7 6 7 8 9 11 11 11 13 15 17 19 22 24 27 29 32 34
3 7 5 4 3 1 16 19 15 16 19 21 23 27 29 27 29 27 25 22 20 17 15 12 10 10 8 8 8 7 9 9 9 11 13 15 18 21 23 25 28 30 29 29
10 7 6 7 18 11 13 33 23 24 25 26 28 28 27 25 26 25 23 20 19 17 15 13 12 11 9 8 7 8 8 7 8 11 13 16 19 22 25 27 26 24 25 24
Wind_Direction
163 110 184 194 195 101 260 171 267 138 208 113 88 83 50 44 53 53 54 58 62 66 70 77 87 95 109 122 140 157 215 221 197 176 341 345 348 6 3 8 16 34 18 17
59 211 174 145 254 261 288 188 151 37 163 92 96 78 63 48 53 58 55 64 66 68 71 73 82 87 90 92 91 104 108 115 114 79 17 5 355 358 2 11 17 31 26 23
171 215 167 176 209 191 233 175 171 148 149 57 133 147 163 74 68 63 65 74 74 66 66 72 77 80 88 89 84 93 99 100 92 61 12 360 2 1 14 27 29 41 38 19
142 146 170 164 236 193 195 164 139 123 122 217 175 249 206 118 73 56 57 67 71 74 80 81 79 77 78 84 90 98 103 99 89 63 11 7 24 35 39 34 40 41 32 23
215 173 159 171 200 211 241 41 164 118 83 47 228 82 298 139 109 79 60 68 71 77 80 82 83 82 84 92 91 85 86 93 75 55 43 39 52 49 41 35 38 52 37 21
118 112 163 185 124 142 136 74 24 49 70 346 234 159 218 193 164 143 98 82 81 81 82 84 84 93 88 88 94 88 74 74 71 45 57 64 55 49 45 36 37 39 33 20
68 331 273 162 87 23 124 108 33 322 212 220 291 152 268 121 92 137 128 97 85 88 99 96 102 91 85 85 82 76 68 68 62 43 48 57 61 61 55 38 32 8 6 351
151 218 180 189 184 180 175 163 173 202 199 212 80 221 245 116 110 117 117 110 98 90 87 84 80 80 73 71 72 69 59 62 59 43 40 46 61 55 47 37 25 15 6 346
149 217 347 186 225 153 183 195 177 111 14 87 149 112 42 143 129 124 121 115 102 96 92 89 85 80 77 74 73 70 61 56 56 47 41 31 30 37 43 23 6 4 347 348
186 115 307 209 115 31 151 168 97 8 140 228 241 218 214 180 164 147 134 128 119 111 102 97 92 86 81 78 73 72 69 64 61 56 49 42 36 27 16 4 347 339 337 331
141 105 199 146 203 175 163 191 200 140 156 178 167 240 330 176 163 161 154 146 135 125 111 103 97 91 86 85 81 77 76 72 70 65 63 60 56 50 44 39 33 23 13 355
192 113 139 196 261 311 295 208 166 155 218 249 190 230 341 142 149 150 146 148 141 135 123 111 103 99 93 87 83 77 74 69 65 63 61 59 56 52 48 44 41 35 32 25
180 49 91 5 350 337 217 216 183 127 99 194 149 216 125 127 138 152 151 158 153 144 135 120 112 104 94 89 86 83 76 71 67 62 58 55 50 45 42 38 33 28 26 22
106 120 159 177 171 149 184 194 198 150 136 173 218 158 191 171 158 158 160 165 159 154 145 131 119 109 104 99 93 87 82 73 64 55 49 44 39 34 29 26 21 17 14 11
114 119 112 84 36 115 173 180 187 181 177 175 189 182 194 186 171 167 168 166 162 157 150 140 131 123 115 108 100 89 77 65 53 43 36 32 27 23 19 16 15 12 10 9
345 116 131 123 97 39 357 242 190 176 120 83 130 233 177 163 158 161 169 169 170 166 160 151 140 134 127 118 103 86 69 53 40 33 30 27 23 21 21 19 16 13 11 8
94 132 142 184 148 75 297 217 195 163 190 147 174 185 148 157 171 171 169 176 177 173 167 159 150 145 134 123 101 76 53 37 27 22 21 20 18 15 14 11 8 6 5 3
136 124 82 130 133 206 235 341 305 168 209 178 101 157 169 164 164 169 182 178 177 174 169 162 155 149 137 118 93 64 41 24 20 15 13 12 12 8 5 2 359 357 355 353
12 128 113 152 191 304 263 202 176 176 241 184 145 130 126 136 139 161 182 187 181 175 168 164 160 151 140 129 97 51 24 16 11 10 11 11 10 6 2 359 357 354 351 349
40 53 109 137 160 205 227 173 152 132 289 176 154 152 145 144 164 194 180 180 174 173 171 169 166 162 153 138 80 22 8 5 3 7 7 6 6 3 0 358 356 354 351 349
101 55 155 165 211 288 193 158 147 110 239 159 161 159 159 167 164 173 173 174 176 173 172 172 171 170 167 175 296 338 352 356 1 1 0 0 359 357 356 355 351 349 347 345
155 146 181 87 93 268 159 125 169 177 133 159 165 165 160 162 158 162 167 170 172 173 175 178 180 181 192 214 280 328 342 349 351 354 356 356 354 352 351 349 349 346 343 341
227 183 176 181 208 256 177 133 186 166 160 168 172 177 178 168 163 164 167 171 174 177 177 181 189 199 215 242 292 316 331 339 344 348 350 350 348 348 347 347 347 345 342 340
265 183 161 74 265 223 194 186 184 179 175 175 179 176 178 166 165 166 170 173 177 180 183 189 200 215 234 260 282 304 322 330 335 342 344 344 345 347 347 345 344 344 343 341
180 143 166 273 270 248 215 210 194 181 180 174 174 175 175 172 172 175 177 180 182 183 187 197 209 226 241 257 274 296 315 324 334 338 339 343 346 344 343 344 344 343 345 347
191 178 174 213 202 182 205 202 191 185 181 181 174 176 182 185 181 182 183 183 185 187 193 202 215 228 237 252 276 299 307 319 329 334 340 342 343 342 340 339 339 344 344 347